Regional Weather Roundup
Issued by NWS

Home | Current Version | Previous Version | Graphics & Text | Print | Product List | Glossary On
Versions: 1 2 3 4 5 6 7 8 9 10 11 12 13 14 15 16 17 18 19 20 21 22 23 24 25 26 27 28 29 30 31 32 33 34 35 36 37 38 39 40 41 42 43 44 45 46 47 48 49 50
000
ASUS43 KMKX 230159
RWRWI

WISCONSIN REGIONAL WEATHER ROUNDUP
NATIONAL WEATHER SERVICE MILWAUKEE/SULLIVAN WI
800 PM CST MON JAN 22 2018

NOTE: "FAIR" INDICATES FEW OR NO CLOUDS BELOW 12,000 FEET WITH NO
SIGNIFICANT WEATHER AND/OR OBSTRUCTIONS TO VISIBILITY.

WIZ001-002-006>008-014>016-023>028-230300-
NORTHWEST WISCONSIN

CITY           SKY/WX    TMP DP  RH WIND       PRES   REMARKS
SUPERIOR ARPT  CLOUDY    26  19  76 N10G20    29.89F WCI  16
ASHLAND        LGT SNOW  24  22  91 NE21G30   29.84F VSB 3/4 WCI   9
HAYWARD        LGT SNOW  24  19  81 N21G31    29.75S WCI   9
SIREN          CLOUDY    26  23  88 N16G24    29.79R WCI  13
CUMBERLAND     CLOUDY    25  21  86 N18G30    29.70R WCI  11
RICE LAKE        N/A     26  24  93 N23G30    29.70S WCI  11
CHETEK         CLOUDY    28  24  86 N12G17    29.69S WCI  18
LADYSMITH      CLOUDY    27  25  89 N22G28    29.67R WCI  13
EAU CLAIRE     NOT AVBL
MENOMONIE      LGT SNOW  29  27  93 N14       29.67S WCI  18
NEW RICHMOND   CLOUDY    26  23  91 N15G24    29.72R WCI  13
OSCEOLA        LGT SNOW  27  27 100 N16G23    29.77S WCI  14
$$

WIZ003>005-009-010-017-018-230300-
NORTH CENTRAL WISCONSIN

CITY           SKY/WX    TMP DP  RH WIND       PRES   REMARKS
MANITOWISH WTR CLOUDY    22  22 100 NE15G24   29.69F WCI   9
ARBOR VITAE    LGT SNOW  24  22  90 N14G23    29.65F WCI  12
WOODRUFF       LGT SNOW  24  22  90 N14G23    29.65F WCI  12
RHINELANDER    SNOW      25  22  88 N13G38    29.57F VSB 1/2 WCI  14
EAGLE RIVER    CLOUDY    24  23  96 N18G31    29.62F WCI  10
LAND O LAKES   SNOW      24  22  92 N14       29.70F VSB 1/2 WCI  12
PHILLIPS       CLOUDY    24  22  95 N24G33    29.63F WCI   8
TOMAHAWK       LGT SNOW  26  23  89 N9G24     29.58F WCI  16
MEDFORD        LGT SNOW  27  25  91 NE10      29.61R WCI  18
MERRILL        LGT SNOW  28  26  94 NE8       29.61R WCI  20
$$

WIZ029-030-035-036-043>047-230300-
CENTRAL WISCONSIN

CITY           SKY/WX    TMP DP  RH WIND       PRES   REMARKS
WAUSAU         LGT SNOW  29  27  92 N7        29.57R FOG     WCI  22
MOSINEE        NOT AVBL
MARSHFIELD     CLOUDY    30  28  92 NE13G21   29.56S FOG     WCI  20
STEVENS POINT  CLOUDY    29  28  96 NE15      29.56F WCI  18
WAUPACA        CLOUDY    32  28  86 NE8G23    29.57R WCI  25
WAUTOMA        CLOUDY    30  28  92 NE13G23   29.54S WCI  20
WISC RAPIDS    NOT AVBL
CAMP DOUGLAS   NOT AVBL
$$

WIZ011>013-019>022-031-037>040-048>050-230300-
NORTHEAST WISCONSIN

CITY           SKY/WX    TMP DP  RH WIND       PRES   REMARKS
ANTIGO         LGT SNOW  27  26  94 NE12      29.59R WCI  17
SHAWANO        CLOUDY    32  28  86 NE16      29.56F WCI  21
OCONTO         CLOUDY    30  28  92 NE8       29.59R WCI  22
STURGEON BAY   CLOUDY    31  30  96 NE18      29.55F FOG     WCI  19
GREEN BAY      CLOUDY    31  29  92 NE20      29.54F WCI  19
MANITOWOC      MIX PCPN  34  33  96 N13G21    29.51F FOG     WCI  25
APPLETON       CLOUDY    30  30 100 NE18G29   29.53R WCI  18
CLINTONVILLE   CLOUDY    32  28  86 NE12G20   29.57R WCI  23
OSHKOSH        CLOUDY    31  30  96 NE20      29.52S WCI  19
$$

WIZ032>034-041-042-053>061-230300-
SOUTHWEST WISCONSIN

CITY           SKY/WX    TMP DP  RH WIND       PRES   REMARKS
LA CROSSE      CLOUDY    35  32  88 N8        29.58R WCI  29
SPARTA         CLOUDY    32  31  95 NE8       29.57R WCI  25
VIROQUA        CLOUDY    32  32 100 NE9       29.53R WCI  24
BOSCOBEL       CLOUDY    36  32  85 E6        29.54R WCI  31
PRAIRIE DU CHI CLOUDY    36  33  88 CALM      29.52R
PLATTEVILLE    CLOUDY    36  36 100 NE8       29.50S WCI  29
$$

WIZ056-057-062-063-064-067-068-230300-
SOUTH CENTRAL WISCONSIN

CITY           SKY/WX    TMP DP  RH WIND       PRES   REMARKS
REEDSBURG      CLOUDY    32  32 100 NE12      29.51F WCI  23
BARABOO/DELLS  CLOUDY    32  31  96 NE12      29.52S WCI  23
LONE ROCK      NOT AVBL
MINERAL POINT  CLOUDY    36  36 100 N3        29.51R
MADISON        CLOUDY    33  32  96 N15       29.48F WCI  23
MIDDLETON      CLOUDY    34  34  99 N15       29.48F WCI  24
WATERTOWN      CLOUDY    33  33 100 N20G26    29.44F WCI  22
MONROE         RAIN      34  34 100 CALM      29.50R
JANESVILLE     RAIN      37  37 100 N7        29.46F WCI  32
$$

WIZ051-052-058>065-066-070>072-230300-
SOUTHEAST WISCONSIN

CITY           SKY/WX    TMP DP  RH WIND       PRES   REMARKS
MILWAUKEE      FOG       36  36 100 NE17      29.44F VSB 1/4 WCI  26
WAUKESHA       LGT RAIN  34  34 100 NE9       29.47R FOG     WCI  26
MILWAUKEE/TIMM TSTM      37  36  93 NE7       29.46S FOG     WCI  32
RACINE         FOG       37  37 100 VRB6      29.48R VSB 1/2 WCI  32
BURLINGTON     MIX PCPN  38  38  97 NW6       29.46R WCI  34
KENOSHA        TSTM      43  41  93 S8        29.44R FOG
FOND DU LAC    CLOUDY    32  30  92 N17G23    29.53S FOG     WCI  21
SHEBOYGAN      LGT RAIN  34  34 100 N7        29.49S FOG     WCI  28
WEST BEND      CLOUDY    34  34 100 N13       29.46F FOG     WCI  25
JUNEAU         MIX PCPN  32  31  97 N13G18    29.51R WCI  22
$$

LSZ147-162-230300-
LAKE SUPERIOR

STATION/POSITION TIME  TEMP    WIND        PRES    WAVE
                       AIR SEA DIR/SP/G            HT/PER
                 (UTC) (F)     (DEG/KT/KT) (MB)    (FT/S)
DEVILS ISLAND    0100   25      50/ 21/ 24 1013.7R
SAXON HARBOR     0140   26      40/ 22/ 34 1010.2F
$$

LMZ867-665-643>646-230300-
LAKE MICHIGAN

STATION/POSITION TIME  TEMP    WIND        PRES    WAVE
                       AIR SEA DIR/SP/G            HT/PER
                 (UTC) (F)     (DEG/KT/KT) (MB)    (FT/S)
NORTHPORT PIER   0140   31      40/  9/ 17 1002.0F
KEWAUNEE LAKESHO 0130   33      20/ 14/ 21  999.3F
SHEBOYGAN LAKESH 0100   35     350/ 17/ 19  999.4R
PORT WASHINGTON  0130   36     360/  4/  9  999.3F
MILWAUKEE LAKESH 0140   36      10/ 14/ 18   N/A
KENOSHA   LAKESH 0100   36      30/  4/  5  997.6
$$

TC  - TEMPERATURE IN CELSIUS
VSB - VISIBILITY IN STATUTE MILES
WCI - WIND CHILL INDEX
HX  - HEAT INDEX





USA.gov is the U.S. government's official web portal to all federal, state and local government web resources and services.